COSMOS 1415 (GLONASS)

Satellite information

Favourite Embed

Satellite Type and Status

PAYLOADIN ORBIT

Key statistics

Satellite COSMOS 1415 (GLONASS) at a glance.

Uptime

15768

Days in orbit

Revolutions

≈ 2.1

Per day

Orbit

MEO

Medium Earth Orbit

Inclination

64.7

Latest

Satellite identification and parameters

Extended collection of information and parameters for COSMOS 1415 (GLONASS).

Object identification

Identified? True

Debris? False

Object name: COSMOS 1415 (GLONASS)

International designator: 1982-100E

Object number (NORAD): 13607

Object ID (CCSDS): 13607

Country: COMMONWEALTH OF INDEPENDENT STATES (CIS)

Current information (Y/N): Y

RCS size: MEDIUM

Orbital parameters

Period: 673.495 minutes

Inclination: 64.7443 deg

SMA: 25451.679 km

Apoapsis: 19085.913 km

Periapsis: 19061.174 km

RAAN: 73.3973 deg

Eccentricy: 0.00048599

Argument of periapsis: 28.1063 deg

Mean anomaly: 299.3364 deg

Mean motion: 2.1381005 rev/day

Mean motion (dot): -0.00000023 rev/day2

B* drag term: 0.0 1/REarth

Two-line elements (TLE)

Creation date: Dec. 10, 2025, 10:40 a.m.

Reference frame: TEME

Reference center: EARTH

Epoch: Dec. 9, 2025, 2:11 a.m. UTC

TLE line 0: 0 COSMOS 1415 (GLONASS)

TLE line 1: 1 13607U 82100E 25343.09106852 -.00000023 00000-0 00000-0 0 9992

TLE line 2: 2 13607 64.7443 73.3973 0004860 28.1063 299.3364 2.13810050336870

Live tracking on map

Real-time ground track for satellite COSMOS 1415 (GLONASS).

In-orbit conjunctions

A list of the most updated potential collisions computed for object COSMOS 1415 (GLONASS).

Target Orbit TCA Probability of collision Miss distance Type
ARIANE 44LP DEB MEO 2024-06-17 09:53:40 TBA 1851.0 (m) DEBRIS

Associated space launch

GLONASS navigation satellite

COSMOS 1415 (GLONASS) was lifted into orbit during the mission ‘Proton | Uragan 1’, on board a Proton space rocket.

The launch took place on Oct. 12, 1982, 2:56 p.m. from 200/39 (200L).

For more information about the launch, click the button.

Launch to space Proton | Uragan 1
Proton | Uragan 1

Agency: N/A

Status: Launch Successful

Launch date: Oct. 12, 1982, 2:56 p.m. UTC

Rocket: Proton

Launch pad: 200/39 (200L)

Location: Baikonur Cosmodrome, Republic of Kazakhstan

...

Latest news about this satellite

There are no fresh news available about this satellite. Check back as we update our databases every day.


Newsletter sign-up

Weekly statistics, charts and insights to help you stay on top of the space industry.